Home > Weather > Singapore > Past weeks

Flag for Singapore Weather for the Past 2 Weeks in Singapore, Singapore

Now
81 °F

Passing clouds.


Feels Like: 87 °F
Forecast: 79 / 89 °F
Wind: 7 mph from Northeast

Location: Changi Airport

Current Time: Feb 14, 2016 at 3:42:03 AM

Latest Report: Feb 14, 2016 at 3:00 AM


Visibility: N/A

Pressure: 29.83 "Hg

Humidity: 89%

Dew point: 77 °F

Location of SingaporeLocation

Historic Weather in Singapore — Graph

°F

Singapore Temperature Yesterday

Maximum temperature yesterday: 90 °F (at 1:30 PM)
Minimum temperature yesterday: 79 °F (at 12:00 AM)
Average temperature yesterday: 84 °F

High & Low Weather Summary for the Past Weeks

 TemperatureHumidityPressure
High91 °F (Jan 31, 1:30 PM)100% (Feb 2, 7:00 AM)29.92 "Hg (Feb 2, 7:00 AM)
Low77 °F (Feb 2, 6:00 AM)55% (Feb 3, 3:30 PM)29.71 "Hg (Feb 5, 4:00 PM)
Average83 °F80%29.84 "Hg
* Reported Jan 30 2:00 AM — Feb 14 2:30 AM, Singapore, Weather by CustomWeather, © 2016

Note: Actual official high and low records may vary slightly from our data, if they occured in-between our weather recording intervals... More about our weather records

Advertising

Singapore Weather History for the Previous 24 Hours

 ConditionsComfort  
Time TempWeatherWind HumidityBarometerVisibility
2:30 AM
Sun, Feb 14
81 °FPassing clouds.6 mph89%29.83 "HgN/A
2:00 AM81 °FPassing clouds.7 mph89%29.86 "HgN/A
1:30 AM81 °FPassing clouds.5 mph89%29.86 "HgN/A
1:00 AM81 °FPassing clouds.5 mph89%29.86 "HgN/A
12:30 AM81 °FPassing clouds.7 mph89%29.89 "HgN/A
12:00 AM81 °FPassing clouds.7 mph89%29.89 "HgN/A
11:30 PM
Sat, Feb 13
82 °FPassing clouds.6 mph84%29.89 "HgN/A
11:00 PM82 °FPassing clouds.7 mph84%29.89 "HgN/A
10:30 PM82 °FPassing clouds.8 mph84%29.89 "HgN/A
10:00 PM82 °FPassing clouds.8 mph84%29.89 "HgN/A
9:30 PM82 °FPassing clouds.8 mph84%29.86 "HgN/A
9:00 PM82 °FPassing clouds.6 mph84%29.86 "HgN/A
8:30 PM82 °FPassing clouds.6 mph84%29.86 "HgN/A
8:00 PM82 °FPassing clouds.8 mph79%29.83 "HgN/A
7:30 PM84 °FPassing clouds.9 mph74%29.83 "HgN/A
7:00 PM84 °FPartly sunny.10 mph74%29.83 "HgN/A
6:30 PM84 °FPartly sunny.10 mph74%29.80 "HgN/A
6:00 PM86 °FPartly sunny.13 mph70%29.80 "HgN/A
5:30 PM86 °FPartly sunny.13 mph70%29.77 "HgN/A
5:00 PM88 °FPartly sunny.13 mph66%29.77 "HgN/A
4:30 PM88 °FPartly sunny.13 mph66%29.80 "HgN/A
4:00 PM88 °FPartly sunny.12 mph66%29.80 "HgN/A
3:30 PM88 °FPartly sunny.13 mph66%29.80 "HgN/A
3:00 PM90 °FPartly sunny.12 mph63%29.80 "HgN/A
2:30 PM90 °FBroken clouds.12 mph67%29.83 "HgN/A
2:00 PM90 °FBroken clouds.10 mph67%29.83 "HgN/A
1:30 PM90 °FPartly sunny.10 mph67%29.83 "HgN/A
1:00 PM88 °FPartly sunny.12 mph70%29.86 "HgN/A
12:30 PM88 °FBroken clouds.12 mph70%29.86 "HgN/A
12:00 PM86 °FBroken clouds.9 mph75%29.89 "HgN/A
11:30 AM88 °FPartly sunny.8 mph70%29.89 "HgN/A
11:00 AM86 °FPartly sunny.9 mph75%29.89 "HgN/A
10:30 AM86 °FPartly sunny.8 mph79%29.89 "HgN/A
10:00 AM84 °FPartly sunny.9 mph84%29.89 "HgN/A
9:30 AM84 °FPartly sunny.6 mph84%29.89 "HgN/A
9:00 AM82 °FPartly sunny.7 mph89%29.89 "HgN/A
8:30 AM82 °FBroken clouds.5 mph89%29.89 "HgN/A
8:00 AM81 °FBroken clouds.6 mph94%29.86 "HgN/A
7:30 AM81 °FBroken clouds.3 mph94%29.86 "HgN/A
7:00 AM81 °FPassing clouds.3 mph94%29.86 "HgN/A
6:00 AM81 °FPassing clouds.5 mph94%29.83 "Hg6 mi
5:30 AM81 °FPassing clouds.6 mph89%29.83 "Hg6 mi
5:00 AM81 °FPassing clouds.6 mph94%29.83 "HgN/A
4:30 AM81 °FPassing clouds.5 mph94%29.83 "HgN/A
4:00 AM81 °FPassing clouds.5 mph89%29.83 "HgN/A
3:30 AM81 °FPassing clouds.8 mph94%29.83 "HgN/A
3:00 AM81 °FPassing clouds.7 mph94%29.83 "HgN/A
Weather by CustomWeather, © 2016

See weather overviewHow to use our weather pages